User: anonymous   Login
Location: ?????????
(38.0736°N, 23.2119°E)
Time: 08:12:57
(UTC+00:00)
Language:

Cosmos 2227 Rocket - Orbit

View from above orbital plane
View from above orbital plane
View from above satellite
View from above satellite

Ground track
Ground track

The orbit data is extracted from the following two-line orbital elements,

1 22285U 92093B   24165.22861823  .00000205  00000-0  12997-3 0  9990
2 22285  71.0215 256.0021 0005322 216.5875 143.4884 14.15259750623708
Epoch (UTC): 13 June 2024 05:29:12
Eccentricity: 0.0005322
inclination: 71.0215°
perigee height: 837 km
apogee height: 845 km
right ascension of ascending node: 256.0021°
argument of perigee: 216.5875°
revolutions per day: 14.15259750
mean anomaly at epoch: 143.4884°
orbit number at epoch: 62370

The dashed part of the orbit path shows where the satellite is in the earth's shadow,  

DLR